Location: Del Amo
(33.8464°N, 118.2104°W)
Time: 08:17:25
(UTC+00:00)

Vanguard 3 - Pass Details

Date: 14 September 2024
Orbit: 507 x 3223 km, 33.3° (Epoch: 09 October)

Event Time Altitude Azimuth Distance (km) Brightness Sun altitude
Rises 13:16:03 0° 223° (SW) 6,346 11.2 -4.9°
Reaches altitude 10° 13:20:03 10° 218° (SW) 5,597 11.0 -4.1°
Maximum altitude 13:37:31 53° 148° (SSE) 3,707 10.8 -0.5°
Drops below altitude 10° 13:55:07 10° 78° (ENE) 5,667 13.6 3.1°
Sets 13:59:09 0° 74° (ENE) 6,430 13.7 4.0°
